Terug naar catalogus

FREGAT DEB

LostUNKNOWN
NORAD 45961·DEBRIS·🇷🇺 Russia

Gelanceerd Jul 18, 2011 vanaf Baikonur Cosmodrome

Loading…

Volgende Passages (komende 24 uur)

TLE

VerouderdSource: Space-Track

Epoch: Apr 11, 2022, 22:35 UTC

1 45961U 11037FS  22101.94116563  .00395124  00000-0  89703-1 0  9990
2 45961  51.3733  17.7349 1400581 342.3396  13.3083 12.24499152 74423

Volg FREGAT DEB in realtime met AllMySat

Download on the App Store